RYR9541 EPKK-LRBS

Flight info

Callsign RYR9541
Flight time N/A
Altitude 39000
Route REGTO DCT RAZEC DCT KEKED DCT BADOR DCT OBARA DCT IRLOX DCT ABRUT
Aircraft B738/M-SDFGIJ1LRWY/SB1

Departure

Time 2026-05-05 03:55
Airport Kraków John Paul II International Airport (EPKK)

Arrival

Time N/A
Airport Bucharest Băneasa Aurel Vlaicu International Airport (LRBS)
Time Latitude Longitude Altitude Speed Heading
2026-05-05 03:46 50.07621 19.79633 797 ft 0 kts 257°
2026-05-05 03:49 50.07624 19.79652 797 ft 2 kts 257°
2026-05-05 03:49 50.07628 19.79675 797 ft 2 kts 262°
2026-05-05 03:49 50.07624 19.79697 797 ft 2 kts 311°
2026-05-05 03:49 50.07614 19.79707 797 ft 0 kts 344°
2026-05-05 03:50 50.07607 19.79709 797 ft 1 kts 348°
2026-05-05 03:50 50.07606 19.79710 797 ft 0 kts 348°
2026-05-05 03:52 50.07625 19.79704 797 ft 6 kts 348°
2026-05-05 03:52 50.07681 19.79703 797 ft 9 kts 41°
2026-05-05 03:52 50.07704 19.79819 797 ft 12 kts 76°
2026-05-05 03:53 50.07725 19.79963 797 ft 15 kts 78°
2026-05-05 03:53 50.07748 19.80129 797 ft 15 kts 78°
2026-05-05 03:53 50.07769 19.80277 797 ft 11 kts 78°
2026-05-05 03:53 50.07818 19.80341 797 ft 10 kts 350°
2026-05-05 03:54 50.07890 19.80320 797 ft 10 kts 348°
2026-05-05 03:54 50.07959 19.80296 797 ft 10 kts 348°
2026-05-05 03:54 50.08013 19.80246 797 ft 10 kts 282°
2026-05-05 03:54 50.07990 19.80036 797 ft 43 kts 258°
2026-05-05 03:55 50.07868 19.79158 797 ft 119 kts 258°
2026-05-05 03:55 50.07654 19.77607 949 ft 166 kts 258°
2026-05-05 03:55 50.07415 19.75840 1687 ft 173 kts 257°
2026-05-05 03:55 50.07161 19.73992 2431 ft 183 kts 256°
2026-05-05 03:56 50.06860 19.71952 2952 ft 209 kts 255°
2026-05-05 03:56 50.06508 19.69729 3854 ft 218 kts 251°
2026-05-05 03:56 50.05840 19.67537 4627 ft 232 kts 231°
2026-05-05 03:56 50.04615 19.65921 5491 ft 241 kts 207°
2026-05-05 03:57 50.03012 19.65039 6312 ft 256 kts 190°
2026-05-05 03:57 50.01188 19.65098 7153 ft 270 kts 171°
2026-05-05 03:57 49.99368 19.65742 8191 ft 275 kts 168°
2026-05-05 03:57 49.97531 19.66464 9247 ft 278 kts 169°
2026-05-05 03:58 49.95649 19.67164 10290 ft 282 kts 170°
2026-05-05 03:58 49.93727 19.67835 10961 ft 296 kts 171°
2026-05-05 03:58 49.91652 19.68534 11619 ft 312 kts 171°
2026-05-05 03:58 49.89497 19.69359 12216 ft 330 kts 165°
2026-05-05 03:59 49.87437 19.70987 13081 ft 343 kts 146°
2026-05-05 03:59 49.85734 19.73660 14040 ft 352 kts 135°
2026-05-05 03:59 49.84010 19.76290 14914 ft 355 kts 143°
2026-05-05 03:59 49.82065 19.78637 15748 ft 359 kts 147°
2026-05-05 04:00 49.80040 19.80873 16582 ft 364 kts 148°
2026-05-05 04:00 49.77966 19.83163 17419 ft 370 kts 147°
2026-05-05 04:00 49.75871 19.85538 18275 ft 376 kts 146°
2026-05-05 04:00 49.73797 19.87949 19124 ft 381 kts 145°
2026-05-05 04:01 49.71682 19.90448 19955 ft 386 kts 144°
2026-05-05 04:01 49.69560 19.92979 20819 ft 389 kts 144°
2026-05-05 04:01 49.67420 19.95538 21610 ft 394 kts 144°
2026-05-05 04:01 49.65256 19.98126 22436 ft 397 kts 143°
2026-05-05 04:02 49.63055 20.00757 23209 ft 402 kts 143°
2026-05-05 04:02 49.60846 20.03394 23946 ft 406 kts 143°
2026-05-05 04:02 49.58620 20.06047 24657 ft 411 kts 143°
2026-05-05 04:02 49.56337 20.08764 25347 ft 416 kts 143°
2026-05-05 04:03 49.54028 20.11507 26017 ft 421 kts 143°
2026-05-05 04:03 49.51710 20.14258 26688 ft 426 kts 143°
2026-05-05 04:03 49.49378 20.17022 27342 ft 430 kts 143°
2026-05-05 04:03 49.46989 20.19849 27992 ft 434 kts 143°
2026-05-05 04:04 49.44592 20.22682 28577 ft 439 kts 143°
2026-05-05 04:04 49.42183 20.25525 29225 ft 443 kts 142°
2026-05-05 04:04 49.39710 20.28439 29783 ft 448 kts 142°
2026-05-05 04:04 49.37225 20.31366 30376 ft 452 kts 142°
2026-05-05 04:05 49.34688 20.34348 30891 ft 458 kts 142°
2026-05-05 04:05 49.32156 20.37321 31646 ft 456 kts 143°
2026-05-05 04:05 49.29646 20.40265 32458 ft 454 kts 142°
2026-05-05 04:05 49.27136 20.43205 33113 ft 454 kts 142°
2026-05-05 04:06 49.24638 20.46126 33795 ft 454 kts 142°
2026-05-05 04:06 49.22159 20.49021 34452 ft 453 kts 143°
2026-05-05 04:06 49.19655 20.51943 35014 ft 453 kts 143°
2026-05-05 04:06 49.17162 20.54846 35587 ft 451 kts 142°
2026-05-05 04:07 49.14679 20.57736 36095 ft 450 kts 142°
2026-05-05 04:07 49.12218 20.60595 36609 ft 449 kts 142°
2026-05-05 04:07 49.09736 20.63475 37221 ft 447 kts 142°
2026-05-05 04:07 49.07264 20.66340 37831 ft 446 kts 143°
2026-05-05 04:08 49.04794 20.69200 38482 ft 444 kts 143°
2026-05-05 04:08 49.02344 20.72031 39007 ft 444 kts 143°
2026-05-05 04:08 48.97426 20.77707 39017 ft 446 kts 143°
2026-05-05 04:09 48.92480 20.83398 39015 ft 444 kts 143°
2026-05-05 04:09 48.87561 20.89046 39012 ft 446 kts 143°
2026-05-05 04:10 48.82635 20.94686 39013 ft 447 kts 143°
2026-05-05 04:10 48.77695 21.00329 39009 ft 445 kts 143°
2026-05-05 04:11 48.72753 21.05959 39003 ft 445 kts 143°
2026-05-05 04:11 48.67837 21.11545 39003 ft 445 kts 143°
2026-05-05 04:12 48.62884 21.17159 39006 ft 446 kts 143°
2026-05-05 04:12 48.57935 21.22755 39013 ft 446 kts 143°
2026-05-05 04:13 48.52983 21.28350 39015 ft 446 kts 143°
2026-05-05 04:13 48.47823 21.33471 39018 ft 445 kts 149°
2026-05-05 04:14 48.42465 21.38075 39023 ft 444 kts 150°
2026-05-05 04:14 48.37078 21.42623 39026 ft 445 kts 150°
2026-05-05 04:15 48.31698 21.47213 39027 ft 445 kts 150°
2026-05-05 04:15 48.26342 21.51821 39024 ft 445 kts 149°
2026-05-05 04:16 48.20995 21.56439 39023 ft 446 kts 149°
2026-05-05 04:16 48.15650 21.61057 39029 ft 445 kts 149°
2026-05-05 04:17 48.10298 21.65674 39029 ft 446 kts 150°
2026-05-05 04:17 48.04944 21.70285 39028 ft 445 kts 150°
2026-05-05 04:18 47.99585 21.74890 39019 ft 445 kts 150°
2026-05-05 04:18 47.94235 21.79474 39020 ft 446 kts 150°
2026-05-05 04:19 47.88851 21.84076 39023 ft 446 kts 150°
2026-05-05 04:19 47.83486 21.88652 39023 ft 446 kts 150°
2026-05-05 04:20 47.78129 21.93210 39028 ft 446 kts 150°
2026-05-05 04:20 47.72750 21.97775 39021 ft 447 kts 150°
2026-05-05 04:21 47.67346 22.02350 39030 ft 448 kts 150°
2026-05-05 04:21 47.61928 22.06926 39022 ft 448 kts 150°
2026-05-05 04:22 47.56593 22.11546 39025 ft 449 kts 146°
2026-05-05 04:22 47.51537 22.16944 39026 ft 449 kts 141°
2026-05-05 04:23 47.46648 22.22623 39029 ft 448 kts 141°
2026-05-05 04:23 47.41779 22.28282 39027 ft 450 kts 141°
2026-05-05 04:24 47.36826 22.33949 39018 ft 450 kts 141°
2026-05-05 04:25 47.29429 22.42299 39024 ft 450 kts 141°
2026-05-05 04:25 47.24457 22.47875 39029 ft 450 kts 141°
2026-05-05 04:26 47.19485 22.53431 39021 ft 450 kts 141°
2026-05-05 04:26 47.14525 22.58960 39030 ft 450 kts 141°
2026-05-05 04:27 47.09552 22.64489 39039 ft 450 kts 141°
2026-05-05 04:27 47.04573 22.70012 39040 ft 450 kts 142°
2026-05-05 04:28 46.99578 22.75507 39051 ft 451 kts 142°
2026-05-05 04:28 46.94559 22.80936 39052 ft 450 kts 142°
2026-05-05 04:29 46.89531 22.86350 39068 ft 450 kts 142°
2026-05-05 04:29 46.84500 22.91760 39056 ft 450 kts 142°
2026-05-05 04:30 46.79474 22.97159 39059 ft 451 kts 142°
2026-05-05 04:30 46.74447 23.02549 39056 ft 449 kts 142°
2026-05-05 04:31 46.69405 23.07944 39076 ft 450 kts 142°
2026-05-05 04:31 46.64368 23.13322 39105 ft 449 kts 142°
2026-05-05 04:32 46.59367 23.18647 39104 ft 448 kts 142°
2026-05-05 04:32 46.54305 23.24026 39124 ft 449 kts 142°
2026-05-05 04:33 46.49269 23.29366 39133 ft 450 kts 142°
2026-05-05 04:33 46.44261 23.34662 39113 ft 449 kts 142°
2026-05-05 04:34 46.39201 23.40001 39112 ft 449 kts 142°
2026-05-05 04:34 46.34154 23.45314 39098 ft 450 kts 142°
2026-05-05 04:35 46.29121 23.50599 39079 ft 449 kts 142°
2026-05-05 04:35 46.24083 23.55876 39077 ft 450 kts 142°
2026-05-05 04:36 46.19008 23.61181 39064 ft 449 kts 142°
2026-05-05 04:36 46.14003 23.66400 39063 ft 448 kts 143°
2026-05-05 04:37 46.08956 23.71652 39062 ft 449 kts 143°
2026-05-05 04:37 46.03898 23.76903 39072 ft 449 kts 143°
2026-05-05 04:38 45.98849 23.82132 39062 ft 449 kts 143°
2026-05-05 04:38 45.93789 23.87362 39056 ft 449 kts 143°
2026-05-05 04:38 45.91241 23.89990 38674 ft 448 kts 143°
2026-05-05 04:39 45.88711 23.92596 37897 ft 451 kts 142°
2026-05-05 04:39 45.86215 23.95165 37575 ft 444 kts 142°
2026-05-05 04:39 45.83731 23.97716 37187 ft 440 kts 142°
2026-05-05 04:39 45.81236 24.00278 36691 ft 440 kts 142°
2026-05-05 04:40 45.78744 24.02834 36170 ft 441 kts 142°
2026-05-05 04:40 45.76257 24.05382 35611 ft 444 kts 142°
2026-05-05 04:40 45.73764 24.07935 34993 ft 448 kts 142°
2026-05-05 04:40 45.71223 24.10535 34482 ft 448 kts 142°
2026-05-05 04:41 45.68693 24.13119 33921 ft 449 kts 142°
2026-05-05 04:41 45.66184 24.15678 33387 ft 448 kts 142°
2026-05-05 04:41 45.63645 24.18263 32839 ft 448 kts 142°
2026-05-05 04:41 45.61063 24.20764 32282 ft 449 kts 144°
2026-05-05 04:42 45.58417 24.23123 31742 ft 449 kts 146°
2026-05-05 04:42 45.55752 24.25395 31198 ft 448 kts 147°